Torna al catalogo

NOAA 16 DEB

AttivoSSO
NORAD 41131·DEBRIS·🇺🇸 United States

Lanciato Sep 21, 2000 da Vandenberg Space Force Base

Loading…

Prossimi Passaggi (prossime 24 ore)

TLE

AggiornatoSource: Space-Track

Epoca: Sep 14, 2026, 05:18 UTC

1 41131U 00055BN  26257.22117002  .00001534  00000-0  88430-3 0  9996
2 41131  98.7880 256.7783 0055018 123.2564 237.3895 14.09826617550676

Traccia NOAA 16 DEB in tempo reale con AllMySat

Download on the App Store